Location: ????????
(55.6189°N, 38.3031°E)
Time: 08:39:05
(UTC+00:00)

SL-4 R/B - Pass Details

Date: 15 November 2019
Orbit: 428 x 667 km, 51.6° (Epoch: 08 December)

Event Time Altitude Azimuth Distance (km) Brightness Sun altitude
Exits shadow 02:35:49 39° 235° (SW) 1,008 2.9 -20.0°
Maximum altitude 02:37:05 48° 192° (SSW) 869 2.9 -19.9°
Drops below altitude 10° 02:41:43 10° 119° (ESE) 2,082 5.9 -19.2°
Sets 02:44:06 0° 114° (ESE) 2,978 7.1 -18.9°
